Current weather by "City, St" or "zip code"  
 
Advertise Here

Current Conditions: Vacaville Nut Tree Airport, CA

Fair


68.0 F

Last Updated on Sep 16 2021, 7:53 pm PDT
Humidity: 61%
Wind Speed: SW 10.4 mph
Barometer 29.77 in
Dewpoint: 54.0 F
Visibility: 10.00 mi
Precip: --
Heat Index: NA
Wind Chill: NA
Current conditions at:

Vacaville Nut Tree Airport, CA (KVCB)

Lat: 38.37755 Lon: 121.95853

Local Radar Image active severe weather and emergency alerts image image weather storm and storm spotter reports image weather observation monitoring service image
Local
Radar
Active
Alerts
Storm Reports Obs
Monitoring

Sign-up For Email & Text Message Weather Alert Notification Services



Advertise Here

Observation History for Vacaville Nut Tree Airport, CA


Time Wind
(mph)
Vis
(mi)
Weather Precip (in) Temperature (F) Relative
Humidity
Wind
Chill
(F)
Heat
Index
(F)
Pressure
Air Dwpt altimeter
(in)
sea level
(mb)
Rmks
7:53 pm PDT SW 10.4 10.00 Fair -- 68.0 54.0 61% NA NA 29.77 1008.1
6:53 pm PDT SW 10.4 10.00 Fair -- 73.0 55.0 53% NA NA 29.76 1007.8
5:53 pm PDT SW 8.1 10.00 Fair -- 78.0 55.0 45% NA NA 29.76 1007.8
4:53 pm PDT S 6.9 10.00 Fair -- 81.0 55.0 41% NA 81 29.77 1007.8
3:53 pm PDT S 10.4 G 17.3 10.00 Fair -- 80.0 55.0 42% NA 80 29.78 1008.3
2:53 pm PDT S 10.4 G 18.4 10.00 Fair -- 78.0 55.0 45% NA NA 29.80 1008.9
1:53 pm PDT SW 8.1 10.00 Fair -- 79.0 55.0 44% NA NA 29.81 1009.2
12:53 pm PDT 3.5 10.00 Fair -- 76.0 54.0 47% NA NA 29.82 1009.7
11:53 am PDT 4.6 10.00 Fair -- 73.0 54.0 51% NA NA 29.84 1010.4
10:53 am PDT SE 5.8 10.00 Fair -- 69.0 53.1 57% NA NA 29.85 1010.8
9:53 am PDT N 0.0 10.00 Fair -- 63.0 53.1 70% NA NA 29.84 1010.4
8:53 am PDT N 0.0 10.00 Fair -- 63.0 53.1 70% NA NA 29.83 1010.1
7:53 am PDT N 0.0 10.00 Fair -- 58.0 52.0 81% NA NA 29.83 1009.9
6:53 am PDT N 0.0 10.00 Fair -- 55.0 51.1 87% NA NA 29.81 1009.2
5:53 am PDT W 4.6 10.00 Fair -- 55.0 51.1 87% 54 NA 29.79 1008.6
4:53 am PDT SW 3.5 10.00 Fair -- 57.0 51.1 81% NA NA 29.78 1008.2
3:53 am PDT SW 5.8 10.00 Fair -- 58.0 51.1 78% 57 NA 29.78 1008.4
2:53 am PDT SW 3.5 10.00 Fair -- 59.0 51.1 75% NA NA 29.78 1008.1
1:53 am PDT SW 10.4 10.00 Fair -- 60.0 52.0 75% 58 NA 29.77 1008.1
12:53 am PDT SW 6.9 10.00 Fair -- 61.0 52.0 72% 60 NA 29.78 1008.3
11:53 pm PDT SW 10.4 G 17.3 10.00 Fair -- 63.0 51.1 65% 62 NA 29.77 1008.0
10:53 pm PDT SW 13.8 G 25.3 10.00 Fair -- 64.0 50.0 60% NA NA 29.77 1008.0
9:53 pm PDT SW 10.4 G 20.7 10.00 Fair -- 64.0 48.9 58% NA NA 29.78 1008.4

Regional Weather Observation


Vacaville Nut Tree Airport, CA (KVCB)

Fair
68.0 F

Yolo County Airport, CA (KDWA)

Fair
81.0 F

Fairfield / Travis Air Force Base, CA (KSUU)

Fair and Breezy
62.0 F

Concord, Buchanan Field, CA (KCCR)

Fair
61.0 F

University Airport, CA (KEDU)

Fair
59.0 F

Petaluma Municipal Airport, CA (KO69)

Overcast
55.0 F
Advertise Here


Advertise Here